Weather History for Millville, NJ

Change the Weather History Date:

Saturday, April 19, 2014

  Actual Average Record
Temperature  
Mean Temperature 52 °F -  
Max Temperature 69 °F 64 °F 89 °F (1985)
Min Temperature 35 °F 42 °F 23 °F (2001)
Degree Days  
Heating Degree Days 13    
Growing Degree Days 2 (Base 50)    
Moisture  
Dew Point 37 °F    
Average Humidity 67    
Maximum Humidity 97    
Minimum Humidity 26    
Precipitation  
Precipitation 0.00 in - - ()
Sea Level Pressure  
Sea Level Pressure 30.27 in    
Wind  
Wind Speed 2 mph (ENE)    
Max Wind Speed 9 mph    
Max Gust Speed 17 mph    
Visibility 10 miles    
Events      
Averages and records for this station are not official NWS values.
T = Trace of Precipitation, MM = Missing Value Source: NWS Daily Summary

Daily Weather History Graph

Daily Weather History Graph

Search for Another Location

Airport:

Trip Planner

Search our weather history database for the weather conditions in past years. The results will help you decide how hot, cold, wet, or windy it might be!

Date:

Astronomy

Apr. 19, 2014 Rise Set
Actual Time 6:17 AM EDT 7:41 PM EDT
Civil Twilight 5:49 AM EDT 8:10 PM EDT
Nautical Twilight 5:15 AM EDT 8:43 PM EDT
Astronomical Twilight 4:40 AM EDT 9:19 PM EDT
Moon No Moon Rise 9:34 AM EDT (4/19)
Length of Visible Light 14h 20m
Length of Day
13h 24m
Waning Gibbous, 79% of the Moon is Illuminated
Apr 19
Waning Gibbous
Apr 22
Last Quarter
Apr 29
New
May 6
First Quarter
May 14
Full

Hourly Weather History & Observations

Time (EDT) Temp. Dew Point Humidity Pressure Visibility Wind Dir Wind Speed Gust Speed Precip Events Conditions
12:54 AM 39.0 °F 36.0 °F 89% 30.28 in 10.0 mi Calm Calm - N/A   Clear
1:54 AM 37.9 °F 36.0 °F 93% 30.27 in 10.0 mi Calm Calm - N/A   Clear
2:54 AM 37.9 °F 36.0 °F 93% 30.25 in 10.0 mi Calm Calm - N/A   Clear
3:54 AM 37.0 °F 36.0 °F 96% 30.26 in 10.0 mi Calm Calm - N/A   Clear
4:54 AM 36.0 °F 35.1 °F 97% 30.25 in 9.0 mi Calm Calm - N/A   Clear
5:54 AM 35.1 °F 34.0 °F 96% 30.25 in 9.0 mi Calm Calm - N/A   Clear
6:54 AM 35.1 °F 34.0 °F 96% 30.27 in 9.0 mi Calm Calm - N/A   Clear
7:54 AM 41.0 °F 39.9 °F 96% 30.29 in 8.0 mi Calm Calm - N/A   Clear
8:54 AM 46.9 °F 42.1 °F 83% 30.29 in 10.0 mi West 4.6 mph - N/A   Clear
9:54 AM 52.0 °F 39.9 °F 63% 30.30 in 10.0 mi Variable 4.6 mph - N/A   Clear
10:54 AM 55.9 °F 39.9 °F 55% 30.29 in 10.0 mi North 8.1 mph - N/A   Clear
11:54 AM 61.0 °F 37.9 °F 42% 30.27 in 10.0 mi Calm Calm - N/A   Clear
12:54 PM 64.0 °F 35.1 °F 34% 30.24 in 10.0 mi NE 6.9 mph 17.3 mph N/A   Clear
1:54 PM 66.0 °F 33.1 °F 29% 30.23 in 10.0 mi NNE 8.1 mph - N/A   Clear
2:54 PM 66.9 °F 32.0 °F 27% 30.23 in 10.0 mi North 9.2 mph - N/A   Clear
3:54 PM 69.1 °F 33.1 °F 26% 30.22 in 10.0 mi NNE 9.2 mph - N/A   Clear
4:54 PM 61.0 °F 43.0 °F 52% 30.22 in 10.0 mi South 8.1 mph - N/A   Clear
5:54 PM 59.0 °F 45.0 °F 60% 30.25 in 10.0 mi SSE 8.1 mph - N/A   Clear
6:54 PM 55.9 °F 37.0 °F 49% 30.25 in 10.0 mi ESE 5.8 mph - N/A   Clear
7:54 PM 52.0 °F 35.1 °F 53% 30.27 in 10.0 mi SE 5.8 mph - N/A   Clear
8:54 PM 48.9 °F 36.0 °F 61% 30.29 in 10.0 mi SE 3.5 mph - N/A   Clear
9:54 PM 46.0 °F 36.0 °F 68% 30.30 in 10.0 mi Calm Calm - N/A   Clear
10:54 PM 43.0 °F 36.0 °F 76% 30.31 in 10.0 mi Calm Calm - N/A   Clear
11:54 PM 42.1 °F 36.0 °F 79% 30.31 in 10.0 mi Calm Calm - N/A   Clear